Preview of NWS' New Version of Forecast
This preview is not operational and should not be used for support decisions.

Regional Weather Roundup (RWR)

Issued by Charleston, SC (CHS)

                            
000
ASUS42 KCHS 160812
RWRCHS

Regional Weather Roundup
National Weather Service Charleston SC
400 AM EDT TUE OCT 16 2018

NOTE: "fair" indicates few or no clouds below 12,000 feet with no
significant weather and/or obstructions to visibility.

Not all stations are quality controlled. Use data with caution,
especially dewpoint observations.

SCZ027-030-031-034>040-042>050-160900-
...Southeast South Carolina...
  
CITY           SKY/WX    TMP DP  RH WIND       PRES   REMARKS
N Charleston   FAIR      72  71  97 CALM      30.10F                  
Waterfront Prk   N/A     76  74  93 CALM      29.94F                  
Mount Pleasant NOT AVBL                                               
Johns Island   PTSUNNY   70  70 100 CALM      30.10F FOG              
Pinopolis        N/A     73  72  94 CALM      30.02F                  
Moncks Corner  FAIR      68  68 100 CALM      30.09F                  
Summerville    PTSUNNY   68  68 100 CALM      30.10F                  
Beaufort MCAS  FAIR      70  69  97 CALM      30.10F                  
Beaufort Arpt  FAIR      70  70 100 CALM      30.09F                  
Hilton Head Is FAIR      73  72  94 S3        30.11F                  
Walterboro     FAIR      70  68  94 CALM      30.11F                  
Allendale      CLOUDY    73  72  94 CALM      30.09F                  

...Southern Midlands and Pee Dee...
  
CITY           SKY/WX    TMP DP  RH WIND       PRES   REMARKS
Georgetown     FAIR      68  68 100 CALM      30.11F                  
Kingstree      FAIR      66  64  94 CALM      30.09F                  
Orangeburg     CLOUDY    72  70  93 SW5       30.09F                  
Barnwell       FAIR      72  70  94 CALM      30.10F                  
Aiken          FAIR      68  68 100 S3        30.13S FOG              
Manning        FAIR      64  64 100 CALM      30.09F                  
Columbia       FAIR      72  71  97 SW5       30.07F                  
Sumter         MOCLDY    71  69  95 SW6       30.07F                  
Florence       FAIR      72  70  93 S8        30.07F                  
Myrtle Beach   FAIR      74  71  91 S3        30.10F                  
N Myrtle Beach FAIR      77  73  87 S7        30.08F                  

$$
 
GAZ063-065-086>088-099>101-113>116-118-119-134>141-150-160900-
...Southeast Georgia...
  
CITY           SKY/WX    TMP DP  RH WIND       PRES   REMARKS
Savannah Arpt  FAIR      71  71 100 CALM      30.11S FOG              
Hunter AAF     FAIR      70  69  95 CALM      30.08F                  
Fort Stewart   FOG       71  71  98 CALM      30.09F VSB 3/8          
Statesboro     CLOUDY    73  73  97 S6        30.10F                  
Sylvania       FOG       73  73 100 CALM      30.11F VSB 1/2          
Claxton        CLOUDY    75  75  98 CALM      30.11F FOG              

...CSRA, Central and far Southeast Georgia...
  
CITY           SKY/WX    TMP DP  RH WIND       PRES   REMARKS
Thomson        CLOUDY    68  67  98 CALM      30.15S FOG              
Augusta-Bush   FAIR      71  70  96 S3        30.08F FOG              
Augusta-Daniel FAIR      72  69  90 SE3       30.10F                  
Swainsboro     CLOUDY    73  72  94 SW3       30.12F                  
Vidalia        CLOUDY    75  72  88 S6        30.11F                  
Eastman        FAIR      73  71  93 SW3       30.13F                  
Hazlehurst     FAIR      76  72  88 CALM      30.11S                  
Alma           FOG       75  73  93 S5        30.11S VSB 1/2          
Waycross       FOG       73  71  91 CALM      30.11F VSB 1            
Jesup          FOG       72  68  88 CALM      30.11F VSB 1/4          
Baxley         FAIR      72  72 100 CALM      30.11S FOG              
Brunswick      FOG       72  70  94 CALM      30.12S VSB 1/4          
Saint Simons   FAIR      76  73  91 CALM      30.11S                  

$$

SCZ027-028-034-036>038-045-046-048>050-GAZ119-141-160900-
...Lake and Supplemental Coastal Observations...
  
STATION/POSITION TIME  TEMP    WIND        PRES    WAVE   SWELL
                       AIR SEA DIR/SP/G            HT/PER HT/PER/DIR
                 (UTC) (F)     (DEG/KT/KT) (MB)    (FT/S) (FT/S/D)
Winyah Bay       0645   73     310/  2     1020.0
Lake Murray      0720   75     230/ 10/ 12 1017.9
ACE Basin NERRS  0645   72        CALM     1020.0
Fort Pulaski     0742   76 79  220/  2/  3 1019.9F
Sapelo Island    0700   74        CALM     1020.0

$$

ANZ835-935-AMZ111-154-330-350-352-354-370-450-454-472-160900-
...C-MAN and Buoy Observations...
  
STATION/POSITION TIME  TEMP    WIND        PRES    WAVE   SWELL
                       AIR SEA DIR/SP/G            HT/PER HT/PER/DIR
                 (UTC) (F)     (DEG/KT/KT) (MB)    (FT/S) (FT/S/D)
Buoy 41004       0750   80                 1019.3F   2/ 7   2/100/ 7
Buoy 41008       0750   81 81  190/  8/ 10 1019.4F   2/ 6   2/ 90/ 6
Folly Beach CMAN 0700   79     210/  7/  8 1020.2F
Capers Nearshore NOT AVBL
Fripp Nearshore  NOT AVBL

  
STATION/POSITION TIME  TEMP    WIND        PRES    WAVE   SWELL
                       AIR SEA DIR/SP/G            HT/PER HT/PER/DIR
                 (UTC) (F)     (DEG/KT/KT) (MB)    (FT/S) (FT/S/D)
5E St. Marys GA  0800      81                N/A     3/ 6
Frying Pan Buoy  0750   80     190/ 12/ 14 1019.5F   2/ 8   2/ 80/ 8
Buoy 41025       0750   80     220/ 16/ 19 1019.2F   4/ 4   2/ 80/12
Cape Lookout NC  0700          230/  9/ 11 1019.6F
Buoy 41002       0750      82              1020.0F   3/11   2/ 90/11
Buoy 41010       0750   82 83  140/  8/ 10 1020.0F
St Augustine FL  0800   80 82  200/  5/  5 1019.8F


$$